Simultaneous Nadir Overpasses (SNOs) Predictions

Prediction of SNOs over PacNW region [( 10.00, 139.50) to ( 22.70, 165.60)] between AQUA and NPP Satellites:

Table of predicted SNOs over PacNW region for the next 30.0 days since TLE Epoch: 7/9/2022
Index Date (AQUA) Time (AQUA) AQUA Lat,Lon Date (NPP) Time (NPP) NPP Lat,Lon Distance(km) Time Diff (sec)
1 07/11/2022 16:22:32 10.04, 140.61 07/11/2022 16:19:03 8.04, 137.81 380.28 209
2 07/17/2022 03:29:51 15.68, 150.03 07/17/2022 03:31:47 14.82, 146.07 434.55 116
3 07/19/2022 15:31:24 10.04, 153.43 07/19/2022 15:27:55 9.84, 150.87 280.88 209
4 07/25/2022 02:38:10 13.82, 163.27 07/25/2022 02:40:37 12.93, 159.18 454.08 147
5 07/27/2022 16:16:14 20.44, 143.88 07/27/2022 16:15:37 21.06, 140.81 326.67 37
6 08/04/2022 15:24:25 22.56, 157.23 08/04/2022 15:24:23 23.16, 154.00 337.76 2
